K5RNB Weather Reports


Display with metric or nautical units.
time (UTC)temp
F
wind
direction
speed
MPH
gust
MPH
rain 1hr
in
rain 24hr
in
rain mn
in
humidity
%
barometer
mb
20260905001916 95 131 5.0 9.0 0.00 0.00 0.00 47 1009.1
20260905001415 96 166 7.0 12.0 0.00 0.00 0.00 47 1009.0
20260905000915 96 159 7.0 12.0 0.00 0.00 0.00 47 1008.9
20260905000417 96 179 7.0 12.0 0.00 0.00 0.00 46 1009.0
20260904235916 96 180 7.0 12.0 0.00 0.00 0.00 45 1008.9
20260904235415 96 153 8.0 12.0 0.00 0.00 0.00 45 1009.0
20260904234915 97 151 5.0 14.0 0.00 0.00 0.00 46 1009.0
20260904234417 97 162 9.0 14.0 0.00 0.00 0.00 45 1009.0
20260904232915 97 122 8.0 15.0 0.00 0.00 0.00 45 1008.9
20260904232415 97 132 6.0 15.0 0.00 0.00 0.00 44 1008.9
20260904231916 97 161 7.0 13.0 0.00 0.00 0.00 45 1008.9
20260904231416 97 186 8.0 13.0 0.00 0.00 0.00 45 1009.0
20260904230915 97 168 9.0 15.0 0.00 0.00 0.00 44 1009.1
20260904230415 97 182 9.0 15.0 0.00 0.00 0.00 44 1009.1
20260904225915 97 158 10.0 16.0 0.00 0.00 0.00 44 1009.0
20260904224916 97 175 11.0 16.0 0.00 0.00 0.00 44 1009.2
20260904224415 97 164 10.0 16.0 0.00 0.00 0.00 44 1009.1
20260904223915 97 171 11.0 17.0 0.00 0.00 0.00 44 1009.2
20260904223416 97 162 11.0 17.0 0.00 0.00 0.00 44 1009.2
20260904222916 97 169 10.0 16.0 0.00 0.00 0.00 44 1009.2
20260904222415 97 161 9.0 20.0 0.00 0.00 0.00 44 1009.1
20260904221916 97 157 10.0 20.0 0.00 0.00 0.00 44 1009.2
20260904221417 97 165 13.0 20.0 0.00 0.00 0.00 44 1009.3
20260904220916 98 178 12.0 17.0 0.00 0.00 0.00 44 1009.3
20260904220416 97 154 9.0 17.0 0.00 0.00 0.00 43 1009.3
20260904215916 97 149 12.0 17.0 0.00 0.00 0.00 44 1009.3
20260904215416 97 147 7.0 16.0 0.00 0.00 0.00 45 1009.4
20260904214916 97 168 8.0 16.0 0.00 0.00 0.00 45 1009.4
20260904214416 97 179 11.0 16.0 0.00 0.00 0.00 46 1009.5
20260904213916 97 156 9.0 15.0 0.00 0.00 0.00 46 1009.5
20260904213416 97 167 11.0 15.0 0.00 0.00 0.00 46 1009.5
20260904212916 97 133 8.0 15.0 0.00 0.00 0.00 45 1009.6
20260904212416 98 168 8.0 20.0 0.00 0.00 0.00 46 1009.6
20260904211917 97 139 9.0 20.0 0.00 0.00 0.00 46 1009.7
20260904211416 98 122 9.0 16.0 0.00 0.00 0.00 45 1009.9
20260904205917 97 141 9.0 16.0 0.00 0.00 0.00 47 1009.9
20260904204918 96 155 8.0 20.0 0.00 0.00 0.00 48 1010.1
20260904204416 96 140 13.0 20.0 0.00 0.00 0.00 47 1010.2
20260904203916 96 158 10.0 20.0 0.00 0.00 0.00 48 1010.2
20260904203416 96 149 10.0 20.0 0.00 0.00 0.00 49 1010.1
20260904202916 96 158 12.0 18.0 0.00 0.00 0.00 50 1010.3
20260904202416 95 112 7.0 20.0 0.00 0.00 0.00 50 1010.3
20260904201917 95 163 11.0 20.0 0.00 0.00 0.00 50 1010.5
20260904195416 95 146 10.0 16.0 0.00 0.00 0.00 52 1010.8
20260904194917 95 193 11.0 20.0 0.00 0.00 0.00 52 1010.9
20260904194417 95 143 12.0 20.0 0.00 0.00 0.00 51 1010.9
20260904193917 95 159 10.0 20.0 0.00 0.00 0.00 52 1011.1
20260904192917 95 164 6.0 20.0 0.00 0.00 0.00 52 1011.0
20260904191917 94 122 9.0 17.0 0.00 0.00 0.00 54 1011.2
20260904191417 94 163 11.0 17.0 0.00 0.00 0.00 54 1011.2
20260904190917 94 174 10.0 16.0 0.00 0.00 0.00 53 1011.3
20260904185917 93 142 10.0 16.0 0.00 0.00 0.00 54 1011.5
20260904185418 93 139 7.0 17.0 0.00 0.00 0.00 54 1011.5
20260904184917 94 156 9.0 20.0 0.00 0.00 0.00 54 1011.6
20260904184417 94 139 9.0 20.0 0.00 0.00 0.00 53 1011.7
20260904183918 93 143 12.0 21.0 0.00 0.00 0.00 54 1011.6
20260904182918 94 155 12.0 21.0 0.00 0.00 0.00 50 1011.8
20260904182417 94 154 12.0 18.0 0.00 0.00 0.00 51 1011.9
20260904181917 93 162 9.0 17.0 0.00 0.00 0.00 52 1011.8
20260904181417 93 168 9.0 17.0 0.00 0.00 0.00 54 1012.0
20260904180917 92 138 10.0 17.0 0.00 0.00 0.00 55 1011.9
20260904180418 93 159 12.0 20.0 0.00 0.00 0.00 55 1012.1
20260904175917 93 150 7.0 20.0 0.00 0.00 0.00 55 1012.0
20260904175418 93 166 10.0 20.0 0.00 0.00 0.00 55 1012.2
20260904174918 93 160 12.0 17.0 0.00 0.00 0.00 53 1012.2
20260904174417 93 124 9.0 16.0 0.00 0.00 0.00 54 1012.3
20260904173917 92 130 9.0 17.0 0.00 0.00 0.00 56 1012.3
20260904173417 92 151 9.0 18.0 0.00 0.00 0.00 54 1012.3
20260904172918 92 158 9.0 18.0 0.00 0.00 0.00 55 1012.5
20260904172418 92 150 8.0 13.0 0.00 0.00 0.00 58 1012.5
20260904171918 91 161 6.0 15.0 0.00 0.00 0.00 58 1012.6
20260904171418 90 144 9.0 15.0 0.00 0.00 0.00 60 1012.6
20260904170918 90 205 5.0 16.0 0.00 0.00 0.00 62 1012.7
20260904170418 90 137 8.0 16.0 0.00 0.00 0.00 62 1012.8
20260904165918 89 163 6.0 16.0 0.00 0.00 0.00 63 1012.9
20260904164918 89 199 7.0 15.0 0.00 0.00 0.00 61 1013.0
20260904164419 90 154 7.0 15.0 0.00 0.00 0.00 61 1013.0
20260904163918 90 226 9.0 15.0 0.00 0.00 0.00 61 1013.0
20260904163418 89 175 5.0 12.0 0.00 0.00 0.00 65 1012.9
20260904162919 88 179 6.0 12.0 0.00 0.00 0.00 65 1013.1
20260904162417 88 198 7.0 12.0 0.00 0.00 0.00 66 1013.0
20260904161918 87 194 6.0 16.0 0.00 0.00 0.00 66 1013.0
20260904161419 87 212 11.0 16.0 0.00 0.00 0.00 66 1013.2
20260904160918 87 219 5.0 14.0 0.00 0.00 0.00 68 1013.1
20260904160418 86 208 8.0 15.0 0.00 0.00 0.00 69 1013.2
20260904155918 86 186 7.0 15.0 0.00 0.00 0.00 71 1013.1
20260904155418 86 229 5.0 13.0 0.00 0.00 0.00 72 1013.1
20260904154919 85 221 8.0 13.0 0.00 0.00 0.00 73 1013.0
20260904154418 85 178 7.0 14.0 0.00 0.00 0.00 75 1013.0
20260904153918 84 204 9.0 15.0 0.00 0.00 0.00 76 1012.9
20260904153418 83 168 11.0 15.0 0.00 0.00 0.00 76 1013.0
20260904152918 83 166 8.0 13.0 0.00 0.00 0.00 78 1012.9
20260904152419 82 162 8.0 12.0 0.00 0.00 0.00 80 1013.0
20260904151919 82 145 9.0 15.0 0.00 0.00 0.00 80 1013.0
20260904151418 82 167 9.0 15.0 0.00 0.00 0.00 80 1012.9
20260904150918 82 152 9.0 16.0 0.00 0.00 0.00 80 1013.0
20260904150419 83 162 9.0 16.0 0.00 0.00 0.00 80 1012.9
20260904145919 83 140 9.0 13.0 0.00 0.00 0.00 80 1013.0
20260904145418 83 175 7.0 13.0 0.00 0.00 0.00 80 1013.0
20260904144918 82 169 9.0 17.0 0.00 0.00 0.00 81 1013.1
20260904144419 82 168 9.0 17.0 0.00 0.00 0.00 81 1013.0
20260904143919 82 167 9.0 14.0 0.00 0.00 0.00 81 1012.8
20260904143418 82 134 10.0 15.0 0.00 0.00 0.00 81 1012.8
20260904142920 82 155 9.0 16.0 0.00 0.00 0.00 82 1012.7
20260904142418 81 175 9.0 16.0 0.00 0.00 0.00 82 1012.7
20260904141918 81 156 9.0 15.0 0.00 0.00 0.00 83 1012.7
20260904141418 80 166 10.0 16.0 0.00 0.00 0.00 83 1012.7
20260904140919 80 176 10.0 16.0 0.00 0.00 0.00 83 1012.7
20260904140421 81 181 9.0 14.0 0.00 0.00 0.00 83 1012.7
20260904135919 80 157 10.0 14.0 0.00 0.00 0.00 83 1012.7
20260904135419 80 158 10.0 13.0 0.00 0.00 0.00 83 1012.6
20260904134919 80 174 8.0 12.0 0.00 0.00 0.00 83 1012.7
20260904134419 80 108 6.0 12.0 0.00 0.00 0.00 83 1012.5
20260904133419 80 163 7.0 12.0 0.00 0.00 0.00 84 1012.5
20260904132919 80 139 5.0 9.0 0.00 0.00 0.00 84 1012.6
20260904131919 79 110 4.0 9.0 0.00 0.00 0.00 84 1012.4
20260904131419 79 123 5.0 8.0 0.00 0.00 0.00 84 1012.4
20260904130919 79 109 2.0 8.0 0.00 0.00 0.00 84 1012.4
20260904125919 79 127 3.0 7.0 0.00 0.00 0.00 84 1012.2
20260904125420 79 94 4.0 7.0 0.00 0.00 0.00 84 1012.3
20260904124920 79 110 3.0 6.0 0.00 0.00 0.00 84 1012.1
20260904123919 79 103 3.0 5.0 0.00 0.00 0.00 85 1012.0
20260904123419 79 97 1.0 3.0 0.00 0.00 0.00 85 1012.0
20260904122920 78 99 1.0 5.0 0.00 0.00 0.00 86 1012.0
20260904122420 78 124 3.0 6.0 0.00 0.00 0.00 85 1011.9
20260904121920 78 119 3.0 6.0 0.00 0.00 0.00 85 1011.9
20260904121419 78 133 3.0 7.0 0.00 0.00 0.00 85 1011.8
20260904120919 78 138 4.0 7.0 0.00 0.00 0.00 85 1011.7
20260904120421 78 134 5.0 7.0 0.00 0.00 0.00 85 1011.7
20260904115919 78 119 4.0 5.0 0.00 0.00 0.00 85 1011.6
20260904115420 78 120 3.0 5.0 0.00 0.00 0.00 85 1011.7
20260904114920 78 127 3.0 5.0 0.00 0.00 0.00 85 1011.6
20260904113919 78 131 3.0 7.0 0.00 0.00 0.00 85 1011.6
20260904113420 78 127 3.0 7.0 0.00 0.00 0.00 85 1011.6
20260904112420 78 153 5.0 10.0 0.00 0.00 0.00 85 1011.5
20260904111419 78 144 5.0 7.0 0.00 0.00 0.00 85 1011.5
20260904110919 78 162 4.0 7.0 0.00 0.00 0.00 85 1011.5
20260904105921 78 171 3.0 6.0 0.00 0.00 0.00 85 1011.6
20260904105420 78 146 3.0 6.0 0.00 0.00 0.00 85 1011.5
20260904104920 78 143 4.0 6.0 0.00 0.00 0.00 84 1011.4
20260904104420 78 142 4.0 6.0 0.00 0.00 0.00 84 1011.5
20260904103920 79 168 3.0 6.0 0.00 0.00 0.00 84 1011.4
20260904103422 79 130 3.0 6.0 0.00 0.00 0.00 84 1011.5
20260904102921 79 124 3.0 6.0 0.00 0.00 0.00 84 1011.4
20260904102421 79 123 3.0 6.0 0.00 0.00 0.00 84 1011.5
20260904101921 79 123 3.0 6.0 0.00 0.00 0.00 84 1011.4
20260904101420 79 114 3.0 6.0 0.00 0.00 0.00 84 1011.4
20260904100920 79 115 3.0 6.0 0.00 0.00 0.00 84 1011.3
20260904100422 79 115 3.0 6.0 0.00 0.00 0.00 84 1011.3
20260904095421 78 110 3.0 6.0 0.00 0.00 0.00 84 1011.3
20260904094921 78 124 2.0 6.0 0.00 0.00 0.00 84 1011.3
20260904094420 78 148 3.0 6.0 0.00 0.00 0.00 84 1011.1
20260904093922 78 155 3.0 6.0 0.00 0.00 0.00 84 1011.3
20260904093420 78 130 3.0 6.0 0.00 0.00 0.00 84 1011.3
20260904092920 78 143 3.0 6.0 0.00 0.00 0.00 84 1011.3
20260904091921 79 137 4.0 7.0 0.00 0.00 0.00 83 1011.3
20260904091421 78 119 3.0 7.0 0.00 0.00 0.00 83 1011.2
20260904090921 78 141 4.0 8.0 0.00 0.00 0.00 83 1011.1
20260904090420 79 137 5.0 8.0 0.00 0.00 0.00 83 1011.2
20260904085420 79 128 4.0 9.0 0.00 0.00 0.00 83 1011.2
20260904084920 79 138 5.0 9.0 0.00 0.00 0.00 83 1011.1
20260904084421 79 135 6.0 9.0 0.00 0.00 0.00 82 1011.1
20260904083421 79 146 5.0 8.0 0.00 0.00 0.00 82 1011.0
20260904082921 79 155 4.0 8.0 0.00 0.00 0.00 82 1011.0
20260904081921 79 162 5.0 10.0 0.00 0.00 0.00 82 1011.1
20260904081421 79 151 5.0 12.0 0.00 0.00 0.00 81 1011.2
20260904080921 79 150 6.0 12.0 0.00 0.00 0.00 81 1011.1
20260904080421 79 151 5.0 8.0 0.00 0.00 0.00 81 1011.0
20260904075921 79 180 5.0 9.0 0.00 0.00 0.00 81 1011.2
20260904075420 79 179 5.0 10.0 0.00 0.00 0.00 81 1011.1
20260904074922 79 174 6.0 10.0 0.00 0.00 0.00 80 1011.1
20260904074421 79 147 5.0 12.0 0.00 0.00 0.00 80 1011.1
20260904073922 79 141 6.0 12.0 0.00 0.00 0.00 80 1011.2
20260904072921 79 154 5.0 9.0 0.00 0.00 0.00 79 1011.2
20260904072421 79 158 5.0 12.0 0.00 0.00 0.00 79 1011.1
20260904071921 79 160 6.0 12.0 0.00 0.00 0.00 79 1011.3
20260904071421 80 182 7.0 9.0 0.00 0.00 0.00 78 1011.2
20260904070422 80 172 6.0 12.0 0.00 0.00 0.00 78 1011.3
20260904065922 80 163 6.0 12.0 0.00 0.00 0.00 78 1011.3
20260904065421 80 165 7.0 9.0 0.00 0.00 0.00 78 1011.3
20260904064421 80 161 6.0 12.0 0.00 0.00 0.00 77 1011.4
20260904063921 80 169 6.0 12.0 0.00 0.00 0.00 77 1011.3
20260904063421 80 159 6.0 10.0 0.00 0.00 0.00 77 1011.4
20260904062922 80 173 7.0 10.0 0.00 0.00 0.00 77 1011.3
20260904062422 80 156 5.0 10.0 0.00 0.00 0.00 76 1011.4
20260904061922 80 170 5.0 9.0 0.00 0.00 0.00 76 1011.4
20260904060922 80 147 6.0 12.0 0.00 0.00 0.00 75 1011.4
20260904060421 80 153 8.0 12.0 0.00 0.00 0.00 75 1011.5
20260904055422 80 147 6.0 10.0 0.00 0.00 0.00 74 1011.5
20260904054921 80 147 6.0 10.0 0.00 0.00 0.00 74 1011.6
20260904054421 80 152 5.0 9.0 0.00 0.00 0.00 73 1011.4
20260904053922 81 154 6.0 8.0 0.00 0.00 0.00 72 1011.5
20260904053422 81 158 5.0 9.0 0.00 0.00 0.00 72 1011.4
20260904052922 81 135 5.0 9.0 0.00 0.00 0.00 72 1011.4
20260904052422 81 144 6.0 9.0 0.00 0.00 0.00 71 1011.4
20260904051922 81 142 5.0 9.0 0.00 0.00 0.00 71 1011.4
20260904051424 82 139 5.0 12.0 0.00 0.00 0.00 71 1011.3
20260904050922 82 146 6.0 13.0 0.00 0.00 0.00 71 1011.3
20260904050422 82 138 9.0 13.0 0.00 0.00 0.00 71 1011.2
20260904045422 82 123 8.0 13.0 0.00 0.00 0.00 70 1011.2
20260904044922 82 137 6.0 12.0 0.00 0.00 0.00 70 1011.3
20260904044422 82 149 6.0 13.0 0.00 0.00 0.00 69 1011.2
20260904043922 82 145 9.0 14.0 0.00 0.00 0.00 69 1011.3
20260904043422 82 157 8.0 15.0 0.00 0.00 0.00 69 1011.2
20260904042922 83 146 8.0 16.0 0.00 0.00 0.00 69 1011.3
20260904042422 83 154 10.0 16.0 0.00 0.00 0.00 69 1011.2
20260904041922 83 154 10.0 14.0 0.00 0.00 0.00 69 1011.3
20260904041422 83 151 8.0 16.0 0.00 0.00 0.00 69 1011.2
20260904040922 83 135 10.0 16.0 0.00 0.00 0.00 69 1011.3
20260904040423 83 150 9.0 16.0 0.00 0.00 0.00 69 1011.1
20260904035923 83 154 11.0 15.0 0.00 0.00 0.00 69 1011.3
20260904035423 84 143 8.0 15.0 0.00 0.00 0.00 69 1011.3
20260904034422 84 153 11.0 17.0 0.00 0.00 0.00 68 1011.3
20260904033922 84 132 10.0 17.0 0.00 0.00 0.00 69 1011.2
20260904032922 84 158 9.0 20.0 0.00 0.00 0.00 68 1011.2
20260904032423 84 158 12.0 18.0 0.00 0.00 0.00 68 1011.3
20260904031423 84 149 9.0 14.0 0.00 0.00 0.00 69 1011.3
20260904030923 84 152 7.0 13.0 0.00 0.00 0.00 69 1011.1
20260904025923 84 160 6.0 12.0 0.00 0.00 0.00 69 1011.0
20260904025423 84 152 6.0 13.0 0.00 0.00 0.00 69 1010.9
20260904024925 85 171 9.0 13.0 0.00 0.00 0.00 69 1010.8
20260904023923 85 161 7.0 13.0 0.00 0.00 0.00 68 1010.7
20260904023423 85 154 9.0 13.0 0.00 0.00 0.00 68 1010.7
20260904022923 85 151 10.0 16.0 0.00 0.00 0.00 67 1010.5
20260904022425 85 129 8.0 16.0 0.00 0.00 0.00 67 1010.5
20260904021923 85 142 9.0 17.0 0.00 0.00 0.00 67 1010.4
20260904021423 85 128 11.0 18.0 0.00 0.00 0.00 67 1010.4
20260904020923 86 140 11.0 18.0 0.00 0.00 0.00 67 1010.2
20260904020423 86 118 7.0 16.0 0.00 0.00 0.00 67 1010.2
20260904015423 86 106 7.0 14.0 0.00 0.00 0.00 67 1010.1
20260904014923 86 130 8.0 16.0 0.00 0.00 0.00 66 1010.0
20260904013923 87 151 9.0 18.0 0.00 0.00 0.00 66 1009.7
20260904013423 87 136 9.0 20.0 0.00 0.00 0.00 66 1009.7
20260904012923 87 149 12.0 20.0 0.00 0.00 0.00 66 1009.5
20260904012424 87 140 11.0 20.0 0.00 0.00 0.00 66 1009.5
20260904011925 87 147 9.0 17.0 0.00 0.00 0.00 65 1009.4
20260904011424 87 131 10.0 17.0 0.00 0.00 0.00 65 1009.4
20260904010924 87 133 6.0 14.0 0.00 0.00 0.00 64 1009.4
20260904005924 88 152 11.0 14.0 0.00 0.00 0.00 63 1009.3
20260904005424 88 147 7.0 13.0 0.00 0.00 0.00 63 1009.3
20260904004924 88 154 8.0 12.0 0.00 0.00 0.00 63 1009.2
20260904004423 88 152 8.0 12.0 0.00 0.00 0.00 63 1009.2
20260904003423 89 150 8.0 13.0 0.00 0.00 0.00 63 1009.2
20260904002923 89 143 8.0 13.0 0.00 0.00 0.00 63 1009.2
20260904002423 89 140 7.0 14.0 0.00 0.00 0.00 63 1009.2